Location: Cluj-Napoca
(46.7712°N, 23.6236°E)
Time: 01:25:09
(UTC+03:00)

ISS - Pass Details

Date: 05 August 2020
Orbit: 418 x 420 km, 51.6° (Epoch: 11 August)

Event Time Altitude Azimuth Distance (km) Brightness Sun altitude
Rises 21:26:42 0° 282° (WNW) 2,369 1.6 -6.1°
Reaches altitude 10° 21:30:07 10° 245° (WSW) 1,499 -0.5 -6.6°
Maximum altitude 21:31:07 11° 228° (SW) 1,436 -0.8 -6.8°
Drops below altitude 10° 21:32:07 10° 210° (SSW) 1,496 -1.0 -6.9°
Enters shadow 21:35:29 - 173° (S) 2,341 -0.4 -7.4°
